Harvey, ND

6:31 PM CST on November 11, 2019 (GMT -0600)
Harvey

Weather History for K5H4 - October, 2019

Change the Weather History Date:

Tuesday, October 22, 2019

  Actual Average (KRUG) Record (KRUG)
Temperature  
Mean Temperature 34 °F -  
Max Temperature 42 °F 53 °F 80 °F (1989)
Min Temperature 26 °F 29 °F 15 °F (1951)
Degree Days  
Heating Degree Days 31    
Moisture  
Dew Point 26 °F    
Average Humidity 79    
Maximum Humidity 100    
Minimum Humidity 53    
Precipitation  
Precipitation 0.00 in - - ()
Sea Level Pressure  
Sea Level Pressure 29.83 in    
Wind  
Wind Speed 15 mph (NW)    
Max Wind Speed 25 mph    
Max Gust Speed 31 mph    
Visibility 10 miles    
Events      
Averages and records for this station are not official NWS values.
T = Trace of Precipitation, MM = Missing Value Source: NWS Daily Summary

Daily Weather History Graph

Daily Weather History Graph

Search for Another Location

Airport or City:

Astronomy

Oct. 22, 2019 Rise Set
Actual Time 8:08 AM CDT 6:38 PM CDT
Civil Twilight 7:37 AM CDT 7:10 PM CDT
Nautical Twilight 7:01 AM CDT 7:46 PM CDT
Astronomical Twilight 6:25 AM CDT 8:21 PM CDT
Moon 12:43 AM CDT (10/22) 4:22 PM CDT (10/22)
Length of Visible Light 11h 33m
Length of Day
10h 29m
Last Quarter, 37% of the Moon is Illuminated
Oct 22
Last Quarter
Oct 27
New
Nov 4
First Quarter
Nov 12
Full
Nov 19
Last Quarter

Hourly Weather History & Observations

Time (CDT) Temp. Windchill Dew Point Humidity Pressure Visibility Wind Dir Wind Speed Gust Speed Precip Events Conditions
12:15 AM 32.0 °F 21.2 °F 28.4 °F 87% 29.88 in 10.0 mi NW 16.1 mph - N/A   Clear
12:35 AM 32.0 °F 21.6 °F 28.4 °F 87% 29.87 in 10.0 mi NW 15.0 mph - N/A   Clear
12:55 AM 32.0 °F 21.2 °F 28.4 °F 87% 29.87 in 10.0 mi NW 16.1 mph - N/A   Clear
1:15 AM 32.0 °F 21.2 °F 28.4 °F 87% 29.87 in 10.0 mi NW 16.1 mph - N/A   Clear
1:35 AM 32.0 °F 20.8 °F 28.4 °F 87% 29.87 in 10.0 mi NW 17.3 mph - N/A   Clear
1:55 AM 30.2 °F 19.3 °F 28.4 °F 93% 29.87 in 10.0 mi NW 15.0 mph - N/A   Clear
2:15 AM 30.2 °F 18.9 °F 28.4 °F 93% 29.87 in 10.0 mi NW 16.1 mph - N/A   Clear
2:35 AM 30.2 °F 18.9 °F 28.4 °F 93% 29.87 in 10.0 mi NW 16.1 mph - N/A   Clear
2:55 AM 30.2 °F 20.2 °F 28.4 °F 93% 29.87 in 10.0 mi NW 12.7 mph - N/A   Clear
3:15 AM 30.2 °F 21.3 °F 28.4 °F 93% 29.88 in 10.0 mi NW 10.4 mph - N/A   Clear
3:35 AM 30.2 °F 20.8 °F 28.4 °F 93% 29.88 in 10.0 mi NW 11.5 mph - N/A   Clear
3:55 AM 30.2 °F 21.3 °F 26.6 °F 86% 29.87 in 10.0 mi NW 10.4 mph - N/A   Clear
4:15 AM 30.2 °F 20.2 °F 26.6 °F 86% 29.87 in 10.0 mi WNW 12.7 mph - N/A   Clear
4:35 AM 28.4 °F 18.5 °F 26.6 °F 93% 29.86 in 10.0 mi WNW 11.5 mph - N/A   Clear
4:55 AM 28.4 °F 16.6 °F 26.6 °F 93% 29.86 in 10.0 mi WNW 16.1 mph - N/A   Clear
5:15 AM 28.4 °F 17.0 °F 26.6 °F 93% 29.86 in 10.0 mi WNW 15.0 mph - N/A   Clear
5:35 AM 28.4 °F 18.0 °F 26.6 °F 93% 29.86 in 10.0 mi WNW 12.7 mph - N/A   Clear
5:55 AM 28.4 °F 17.0 °F 26.6 °F 93% 29.86 in 10.0 mi WNW 15.0 mph - N/A   Clear
6:15 AM 28.4 °F 17.5 °F 26.6 °F 93% 29.86 in 10.0 mi WNW 13.8 mph - N/A   Clear
6:35 AM 28.4 °F 17.0 °F 26.6 °F 93% 29.86 in 10.0 mi WNW 15.0 mph - N/A   Clear
6:55 AM 28.4 °F 18.0 °F 26.6 °F 93% 29.86 in 10.0 mi NW 12.7 mph 20.7 mph N/A   Clear
7:35 AM 26.6 °F 14.3 °F 26.6 °F 100% 29.85 in 10.0 mi WNW 16.1 mph - N/A   Clear
7:55 AM 26.6 °F 16.2 °F 26.6 °F 100% 29.85 in 10.0 mi NW 11.5 mph - N/A   Clear
8:15 AM 26.6 °F 15.2 °F 24.8 °F 93% 29.85 in 10.0 mi WNW 13.8 mph - N/A   Clear
8:35 AM 28.4 °F 17.5 °F 26.6 °F 93% 29.85 in 10.0 mi NW 13.8 mph - N/A   Mostly Cloudy
8:55 AM 28.4 °F 17.5 °F 26.6 °F 93% 29.86 in 10.0 mi NW 13.8 mph - N/A   Overcast
9:15 AM 28.4 °F 17.5 °F 26.6 °F 93% 29.85 in 10.0 mi WNW 13.8 mph - N/A   Overcast
9:35 AM 30.2 °F 19.8 °F 26.6 °F 86% 29.85 in 10.0 mi WNW 13.8 mph - N/A   Scattered Clouds
9:55 AM 30.2 °F 19.8 °F 26.6 °F 86% 29.85 in 10.0 mi WNW 13.8 mph - N/A   Clear
10:15 AM 32.0 °F 20.8 °F 26.6 °F 80% 29.85 in 10.0 mi NW 17.3 mph - N/A   Clear
10:35 AM 33.8 °F 23.9 °F 28.4 °F 81% 29.85 in 10.0 mi NW 15.0 mph - N/A   Clear
10:55 AM 33.8 °F 22.5 °F 28.4 °F 81% 29.84 in 10.0 mi NW 19.6 mph - N/A   Clear
11:15 AM 35.6 °F 26.2 °F 28.4 °F 75% 29.84 in 10.0 mi NNW 15.0 mph 21.9 mph N/A   Clear
11:35 AM 37.4 °F 28.2 °F 26.6 °F 65% 29.84 in 10.0 mi NNW 16.1 mph 23.0 mph N/A   Clear
11:55 AM 37.4 °F 27.5 °F 26.6 °F 65% 29.83 in 10.0 mi NNW 18.4 mph - N/A   Scattered Clouds
12:55 PM 39.2 °F 29.6 °F 28.4 °F 65% 29.82 in 10.0 mi NW 19.6 mph 27.6 mph N/A   Clear
1:15 PM 39.2 °F 29.8 °F 26.6 °F 61% 29.81 in 10.0 mi NW 18.4 mph 26.5 mph N/A   Clear
1:35 PM 41.0 °F 31.9 °F 26.6 °F 57% 29.81 in 10.0 mi NW 19.6 mph 29.9 mph N/A   Clear
1:55 PM 41.0 °F 31.4 °F 26.6 °F 57% 29.81 in 10.0 mi NNW 21.9 mph - N/A   Clear
2:15 PM 41.0 °F 30.7 °F 26.6 °F 57% 29.80 in 10.0 mi NW 25.3 mph - N/A   Clear
2:35 PM 41.0 °F 30.9 °F 26.6 °F 57% 29.79 in 10.0 mi NW 24.2 mph 31.1 mph N/A   Clear
2:55 PM 41.0 °F 30.9 °F 26.6 °F 57% 29.79 in 10.0 mi NW 24.2 mph - N/A   Clear
3:15 PM 41.0 °F 30.9 °F 24.8 °F 53% 29.79 in 10.0 mi NW 24.2 mph 29.9 mph N/A   Clear
3:35 PM 41.0 °F 31.4 °F 26.6 °F 57% 29.79 in 10.0 mi NW 21.9 mph 29.9 mph N/A   Clear
3:55 PM 41.0 °F 31.9 °F 24.8 °F 53% 29.79 in 10.0 mi NNW 19.6 mph 26.5 mph N/A   Clear
4:15 PM 42.8 °F 35.4 °F 26.6 °F 53% 29.79 in 10.0 mi NW 15.0 mph 25.3 mph N/A   Clear
4:35 PM 41.0 °F 32.5 °F 24.8 °F 53% 29.79 in 10.0 mi NNW 17.3 mph 25.3 mph N/A   Clear
4:55 PM 41.0 °F 32.2 °F 24.8 °F 53% 29.79 in 10.0 mi NNW 18.4 mph - N/A   Clear
5:15 PM 41.0 °F 32.5 °F 24.8 °F 53% 29.80 in 10.0 mi NW 17.3 mph 24.2 mph N/A   Clear
5:35 PM 39.2 °F 31.2 °F 24.8 °F 56% 29.80 in 10.0 mi NW 13.8 mph - N/A   Clear
5:55 PM 39.2 °F 31.6 °F 24.8 °F 56% 29.80 in 10.0 mi NW 12.7 mph 19.6 mph N/A   Clear
6:15 PM 35.6 °F 28.0 °F 24.8 °F 65% 29.80 in 10.0 mi NW 10.4 mph - N/A   Clear
6:35 PM 33.8 °F 26.4 °F 24.8 °F 70% 29.80 in 10.0 mi NW 9.2 mph - N/A   Clear
6:55 PM 32.0 °F 24.2 °F 24.8 °F 75% 29.80 in 10.0 mi NW 9.2 mph - N/A   Clear
7:15 PM 30.2 °F 21.9 °F 24.8 °F 80% 29.80 in 10.0 mi NW 9.2 mph - N/A   Clear
7:35 PM 30.2 °F 22.6 °F 24.8 °F 80% 29.80 in 10.0 mi WNW 8.1 mph - N/A   Clear
7:55 PM 30.2 °F 22.6 °F 24.8 °F 80% 29.80 in 10.0 mi WNW 8.1 mph - N/A   Clear
8:15 PM 28.4 °F 21.2 °F 24.8 °F 86% 29.79 in 10.0 mi NNW 6.9 mph - N/A   Clear
8:35 PM 28.4 °F 21.2 °F 24.8 °F 86% 29.79 in 10.0 mi NW 6.9 mph - N/A   Clear
8:55 PM 28.4 °F 21.2 °F 24.8 °F 86% 29.79 in 10.0 mi NW 6.9 mph - N/A   Clear
9:15 PM 28.4 °F 21.2 °F 24.8 °F 86% 29.80 in 10.0 mi WNW 6.9 mph - N/A   Clear
9:35 PM 28.4 °F 21.2 °F 23.0 °F 80% 29.80 in 10.0 mi WNW 6.9 mph - N/A   Clear
9:55 PM 30.2 °F 23.4 °F 23.0 °F 75% 29.80 in 10.0 mi WNW 6.9 mph - N/A   Clear
10:15 PM 28.4 °F 22.2 °F 23.0 °F 80% 29.80 in 10.0 mi NW 5.8 mph - N/A   Clear
10:35 PM 26.6 °F 20.0 °F 23.0 °F 86% 29.80 in 10.0 mi WNW 5.8 mph - N/A   Clear
10:55 PM 28.4 °F 21.2 °F 23.0 °F 80% 29.80 in 10.0 mi WNW 6.9 mph - N/A   Clear
11:15 PM 26.6 °F 19.1 °F 23.0 °F 86% 29.80 in 10.0 mi WNW 6.9 mph - N/A   Clear
11:35 PM 26.6 °F 20.0 °F 23.0 °F 86% 29.81 in 10.0 mi NW 5.8 mph - N/A   Clear
11:55 PM 26.6 °F 20.0 °F 23.0 °F 86% 29.80 in 10.0 mi NNW 5.8 mph - N/A   Clear